Location: *
(37.9500°N, 27.3666°E)
Time: 14:15:32
(UTC+00:00)

SJ-11-01 - Pass Details

Date: 24 October 2021
Orbit: 684 x 700 km, 97.9° (Epoch: 03 December)

Event Time Altitude Azimuth Distance (km) Brightness Sun altitude
Rises 16:28:14 0° 162° (SSE) 3,041 7.5 -13.9°
Reaches altitude 10° 16:30:28 10° 160° (SSE) 2,131 6.6 -14.3°
Maximum altitude 16:35:07 75° 76° (ENE) 719 4.2 -15.3°
Drops below altitude 10° 16:39:49 10° 351° (N) 2,156 6.9 -16.2°
Sets 16:42:05 0° 350° (N) 3,080 7.7 -16.6°
